Miscellaneous Local Product
Issued by NWS Hastings, NE

Home | Current Version | Previous Version | Graphics & Text | Print | Product List | Glossary On
Versions: 1 2 3 4 5 6 7 8 9 10 11 12 13 14 15 16 17 18 19 20 21 22 23 24 25 26 27 28 29 30 31 32 33 34 35 36 37 38 39 40 41 42 43 44 45 46 47 48 49 50
242
AXUS43 KGID 210202
MISGRI

GID CWA HOURLY WEATHER ROUNDUP
NATIONAL WEATHER SERVICE HASTINGS NE
800 PM CST TUE FEB 20 2018

NOTE: "FAIR" INDICATES FEW OR NO CLOUDS BELOW 12,000 FEET WITH NO
SIGNIFICANT WEATHER AND/OR OBSTRUCTIONS TO VISIBILITY.

...SOUTH CENTRAL NEBRASKA...

CITY           SKY/WX    TMP DP  RH WIND       PRES   REMARKS
GRAND ISLAND   CLEAR     12   3  67 N14       30.34R WCI  -3
KEARNEY        CLEAR     10   3  73 N12       30.34R WCI  -5
HASTINGS       CLEAR     12   3  67 N13       30.33R WCI  -3
ORD            CLEAR      5  -2  72 NW7       30.33R WCI  -7
YORK           CLEAR     12   7  79 N10       30.35R WCI  -1
AURORA         CLEAR     12   4  70 N14       30.34R WCI  -4
LEXINGTON      CLEAR     11   3  70 N6        30.31R WCI   1
HOLDREGE       CLEAR     11   4  74 N7        30.31R WCI   0
HEBRON         CLOUDY    17   8  69 N8        30.34R WCI   6

...NEBRASKA PANHANDLE...

CITY           SKY/WX    TMP DP  RH WIND       PRES   REMARKS
CHADRON        CLEAR     -2 -11  65 SW7       30.22R WCI -15
ALLIANCE       PTCLDY   -10 -12  91 S8        30.17R WCI -26
SCOTTSBLUFF    PTCLDY     6  -3  66 S3        30.17R
SIDNEY         CLEAR    -11 -15  82 CALM      30.16R

...WESTERN AND NORTH CENTRAL NEBRASKA...

CITY           SKY/WX    TMP DP  RH WIND       PRES   REMARKS
VALENTINE      PTCLDY    -7 -14  71 SW5       30.30R WCI -18
AINSWORTH      PTCLDY    -2  -6  82 SW5       30.30R WCI -12
ONEILL         CLEAR      2  -4  78 NW3       30.33S
BROKEN BOW     CLEAR      4  -4  69 NW12      30.29R WCI -12
IMPERIAL       PTCLDY     5  -2  72 NW3       30.26R
NORTH PLATTE   CLEAR      0  -7  72 N3        30.29R
MCCOOK         CLEAR     11   4  73 NW7       30.30R WCI   0

...EASTERN NEBRASKA...

CITY           SKY/WX    TMP DP  RH WIND       PRES   REMARKS
NORFOLK        CLEAR      8   2  76 NW10      30.33R WCI  -6
SO SIOUX CITY  CLEAR     11   4  73 NW13      30.36R WCI  -4
TEKAMAH        CLOUDY    12   6  77 NW15      30.38R WCI  -4
COLUMBUS       CLEAR     11   6  81 NW10      30.37R WCI  -3
ALBION         CLEAR      8   2  76 NW10      30.34R WCI  -6
OMAHA EPPLEY   CLOUDY    15   8  73 NW14      30.35R WCI   0
OFFUTT AFB     CLOUDY    16   7  69 N14       30.34R WCI   1
MILLARD        MOCLDY    17   9  72 NW14G22   30.36R WCI   3
LINCOLN        CLOUDY    16   8  71 NW14      30.36R WCI   2
NEBRASKA CITY  CLOUDY    17  13  81 N18       30.33R WCI   1
BEATRICE       CLOUDY    19  11  73 N13G18    30.33R WCI   5
FALLS CITY     CLOUDY    19  11  70 N15G21    30.32S WCI   5

...NORTHERN KANSAS...

CITY           SKY/WX    TMP DP  RH WIND       PRES   REMARKS
GOODLAND       PTCLDY     7   1  76 NW6       30.22R WCI  -3
HILL CITY      CLOUDY    16   3  56 N10       30.31R WCI   4
NORTON         PTCLDY    10   0  61 NE6       30.29S WCI   1
PHILLIPSBURG   CLEAR     16   5  62 N6        30.34R WCI   7
SMITH CENTER   PTCLDY    14   5  67 N10       30.34R WCI   1
BELOIT         CLEAR     18   7  62 N8        30.33R WCI   7
HAYS           MOCLDY    17   5  59 N13       30.29R WCI   4
RUSSELL        CLEAR     20   6  55 N10       30.28R WCI   9
CONCORDIA      CLOUDY    18   9  68 N12       30.31R WCI   5
SALINA         PTCLDY    23  13  65 N14       30.31R WCI  11
TOPEKA         CLOUDY    22  17  81 N14       30.30R WCI   9



USA.gov is the U.S. government's official web portal to all federal, state and local government web resources and services.